Voltar ao catálogo

STARLINK-5060

AtivoComunicaçõesVLEO
NORAD 55413·PAYLOAD·🇺🇸 United States

Lançado Jan 31, 2023 de Vandenberg Space Force Base

Loading…

Próximas Passagens (próximas 24 horas)

TLE

AtualizadoSource: CelesTrak SupGP

Época: Sep 15, 2026, 02:35 UTC

1 55413C 23014Y   26258.10812500  .00054323  00000+0  45525-2 0  2585
2 55413  70.0013 326.6741 0003544 267.7782 320.8808 14.98302160    19

Acompanhe STARLINK-5060 em tempo real com AllMySat

Download on the App Store